Torna al catalogo

STARLINK-35241

AttivoComunicazioniVLEO
NORAD 65515·PAYLOAD·🇺🇸 United States

Lanciato Sep 5, 2025 da Cape Canaveral Space Force Station

Loading…

Prossimi Passaggi (prossime 24 ore)

TLE

AggiornatoSource: CelesTrak SupGP

Epoca: Sep 15, 2026, 02:24 UTC

1 65515C 25198Z   26258.10048611  .00027979  00000+0  82598-3 0  2587
2 65515  53.1566 109.2234 0001196  87.3369  54.9311 15.34401933    11

Traccia STARLINK-35241 in tempo reale con AllMySat

Download on the App Store